Regional Weather Roundup
Issued by NWS

Home | Current Version | Previous Version | Text Only | Print | Product List | Glossary Off
Versions: 1 2 3 4 5 6 7 8 9 10 11 12 13 14 15 16 17 18 19 20 21 22 23 24 25 26 27 28 29 30 31 32 33 34 35 36 37 38 39 40 41 42 43 44 45 46 47 48 49 50

000
ASUS42 KTBW 272218
RWRFL
FLORIDA REGIONAL WEATHER ROUNDUP
NATIONAL WEATHER SERVICE TAMPA BAY RUSKIN FL
600 PM EDT SAT MAY 27 2017

NOTE: "FAIR" INDICATES FEW OR NO CLOUDS BELOW 12,000 FEET WITH NO
SIGNIFICANT WEATHER AND/OR OBSTRUCTIONS TO VISIBILITY.

FLZ001>010-012>015-112-114-115-272300-
PANHANDLE FLORIDA

CITY           SKY/WX    TMP DP  RH WIND       PRES   REMARKS
PENSACOLA      SUNNY     86  74  67 S17       30.01F
PENSACOLA NAS  PTSUNNY   82  74  76 SW16      30.02F
MILTON NAS     MOSUNNY   85  74  69 SW13      30.01
CRESTVIEW      SUNNY     89  68  49 W7        30.02F
DUKE FIELD     FAIR      87  71  58 SW14      30.00F
VALPARAISO     MOSUNNY   83  73  72 SW13      30.02F
MARY ESTHER    SUNNY     82  73  74 S12       30.02F
PANAMA CITY    FAIR      85  72  65 W13       30.01F
TYNDALL AFB    SUNNY     82  72  71 W12       30.03F
APALACHICOLA   LGT RAIN  88  70  55 W14       30.03F

STATION/POSITION SKY/WX   TEMP    WIND        PRES    WAVE   SWELL
                          AIR SEA DIR/SP/G            HT/PER HT/PER
                          (F)     (DEG/KT/KT) (MB)    (FT/S) (FT/S)
30.1N   87.6W              79 79  190/ 10/ 10 1016.8F   2/ 5   2/ 5
29.2N   88.2W              80 80  170/  8/  8 1017.3
28.8N   86.0W              81 83  260/  2/  4 1017.7F   1/ 9   2/ 9
PANAMA CITY BEAC           79 80  240/ 10/ 11 1017.4F
TOWER C                    78     260/ 14/ 16 1017.8F
28.5N   84.5W              78 80  300/  2/  4 1017.9F   1/ 8   2/ 8

$$
FLZ011-016>038-118-127-128-134-139-239-272300-
NORTH FLORIDA

CITY           SKY/WX    TMP DP  RH WIND       PRES   REMARKS
MARIANNA       SUNNY     89  66  46 W7        30.00F
TALLAHASSEE    MOSUNNY   90  64  42 NW5       30.00F
PERRY          SUNNY     84  69  59 SW8       30.03F
CROSS CITY     SUNNY     84  61  45 W8        30.03F
LAKE CITY      FAIR      88  61  40 W9        30.02S
GAINESVILLE    SUNNY     90  60  36 W7        30.01S
WILLISTON      SUNNY     91  54  27 W9        30.03S
PALATKA        FAIR      93  55  27 W9        30.00F
MAYPORT NAS    SUNNY     85  62  46 SE12      30.00S
JACKSONVILLE   MOSUNNY   92  59  33 SW9       29.98S
JAX NAS        MOSUNNY   94  54  25 W10       30.00S
FERNANDINA BEA FAIR      88  68  51 SE13      29.98S
ST AUGUSTINE   SUNNY     84  64  50 SE12      30.01F
PALM COAST     FAIR      84  66  55 SE9       30.00F

STATION/POSITION SKY/WX   TEMP    WIND        PRES    WAVE   SWELL
                          AIR SEA DIR/SP/G            HT/PER HT/PER
                          (F)     (DEG/KT/KT) (MB)    (FT/S) (FT/S)
SHELL POINT      NOT AVBL
KEATON BEACH               78     220/  6/  7 1016.8F
CEDAR KEY                  79     280/  7/ 10 1017.9F
FERNANDINA                 85 81  120/  8/ 12 1016.1F
30.7N   81.3W                 80                N/A     2/ 8
MAYPORT                    84 80  140/  8/ 11 1016.2F
31.4N   80.9W              79 79  170/ 12/ 14 1015.0F   2/ 7   2/ 7
ST AUGUSTINE               78 81  140/  8/  9 1017.0F

$$
FLZ040-043>046-052-053-057-058-063-144-272300-
INTERIOR CENTRAL FLORIDA

CITY           SKY/WX    TMP DP  RH WIND       PRES   REMARKS
OCALA          SUNNY     89  58  34 W8        30.03S
THE VILLAGES     N/A     91  50  24 SE12G18   29.92S
LEESBURG       SUNNY     92  47  21 W9        30.02S
SANFORD        SUNNY     94  51  23 VRB3      30.00F
ORLANDO EXEC   SUNNY     93  50  23 W12       30.01F
ORLANDO INTL   MOSUNNY   91  51  25 VRB7      30.00F
KISSIMMEE      SUNNY     94  53  25 W9        30.02S
WINTER HAVEN   SUNNY     94  36  13 NW9       30.03S
LAKELAND       SUNNY     91  46  21 NW13G20   30.03S
BARTOW         FAIR      93  43  17 W12       30.02S
OKEECHOBEE     SUNNY     95  54  24 NW10      30.01S

$$
FLZ041-047-054-059-064-141-147-272300-
EAST CENTRAL FLORIDA

CITY           SKY/WX    TMP DP  RH WIND       PRES   REMARKS
ORMOND BEACH   SUNNY     82  68  61 E8        30.01S
DAYTONA BEACH  SUNNY     84  65  52 E10       30.01S
DELAND         SUNNY     93  54  26 W6        29.99F
NEW SMYRNA BEA SUNNY     84  68  58 E9        30.02S
JFK SPACE CTR  SUNNY     85  70  60 SE8       30.00S
TITUSVILLE     SUNNY     90  66  45 E12       30.01S
CAPE CANAVERAL SUNNY     88  69  52 SE9       30.00S
PATRICK AFB    SUNNY     81  73  76 SE9       30.00S
MELBOURNE      SUNNY     87  67  51 SE9       30.00F
VERO BEACH     SUNNY     86  73  65 SE13      30.01F
FT PIERCE      SUNNY     88  76  67 E12       30.01S HX  99
STUART         SUNNY     88  81  79 E12       30.02S HX 105

STATION/POSITION SKY/WX   TEMP    WIND        PRES    WAVE   SWELL
                          AIR SEA DIR/SP/G            HT/PER HT/PER
                          (F)     (DEG/KT/KT) (MB)    (FT/S) (FT/S)
28.5N   80.2W              80 78  100/  6/  6 1017.5
28.9N   78.5W              80 80  200/  2/  4 1017.1F   2/ 9   2/ 9
TRIDENT PIER               81 79   80/  7/ 10 1017.8F
28.4N   80.5W                 77                N/A     1/ 8
27.5N   80.2W                 76                N/A     1/ 7

$$
FLZ050-056-061-142-242-148-248-149-249-151-251-155-255-
160-260-272300-
WEST CENTRAL FLORIDA

CITY           SKY/WX    TMP DP  RH WIND       PRES   REMARKS
CRYSTAL RIVER  FAIR      81  64  57 W12       30.06S
INVERNESS      FAIR      84  54  34 NW6       30.05S
BROOKSVILLE    SUNNY     84  57  39 W13       30.06S
CLEARWATER AIR FAIR      79  64  61 NW9       30.06S
ST PETE CLEARW SUNNY     84  59  42 NW13      30.05F
TAMPA INTL     MOSUNNY   86  57  37 W12G22    30.05S
TAMPA EXEC     SUNNY     90  46  22 NW10      30.05S
PLANT CITY     SUNNY     91  50  24 W18       30.06S
MACDILL AFB    SUNNY     85  59  40 NW8G17    30.05S
PETER O KNIGHT SUNNY     88  61  40 W8        30.05S
ST PETERSBURG  SUNNY     84  62  47 NW9       30.03S
SARASOTA       SUNNY     84  63  49 W12       30.04S
VENICE         FAIR      82  70  65 NW10      30.06S

STATION/POSITION SKY/WX   TEMP    WIND        PRES    WAVE   SWELL
                          AIR SEA DIR/SP/G            HT/PER HT/PER
                          (F)     (DEG/KT/KT) (MB)    (FT/S) (FT/S)
27.3N   84.2W                 82                N/A     1/ 7
CLEARWATER BEACH           79 83  310/  9/ 12 1018.3F
MIDDLE TAMPA BAY           79     300/ 10/ 12 1018.1F
VENICE                     80 85  330/  8/  9 1017.4S

$$
FLZ066-069-070-075>078-162-262-165-265-272300-
SOUTHWEST FLORIDA AND KEYS

CITY           SKY/WX    TMP DP  RH WIND       PRES   REMARKS
PUNTA GORDA    SUNNY     89  67  47 W14       30.05S
FT MYERS       SUNNY     90  68  48 NW13      30.03S
SOUTHWEST INTL SUNNY     88  69  53 W9        30.04R
NAPLES         SUNNY     87  71  58 NW9       30.04S
MARCO ISLAND   SUNNY     90  70  51 W9        30.04F HX  95
IMMOKALEE      FAIR      91  70  49 VRB7G16   30.03S HX  97
MARATHON       SUNNY     89  78  70 W5        30.03S HX 103
KEY WEST NAS   MOSUNNY   88  79  74 N9        30.04S HX 103
KEY WEST INTL  SUNNY     90  80  72 N10       30.04S HX 107

STATION/POSITION SKY/WX   TEMP    WIND        PRES    WAVE   SWELL
                          AIR SEA DIR/SP/G            HT/PER HT/PER
                          (F)     (DEG/KT/KT) (MB)    (FT/S) (FT/S)
NAPLES                        87  310/ 11/ 12 1017.4F
DRY TORTUGAS               83      50/  8/  9 1017.4F
SAND KEY                   83      30/ 10/ 12 1017.8S
LONG KEY                   85 89  250/  3/  5 1016.9F
MOLASSES REEF              84 83  240/  8/  8 1017.5R

$$
FLZ067-068-071>074-168-172>174-272300-
SOUTHEAST FLORIDA

CITY           SKY/WX    TMP DP  RH WIND       PRES   REMARKS
W PALM BEACH   MOSUNNY   92  63  38 VRB6      30.02S
BOCA RATON     MOSUNNY   88  77  70 SE9       30.02S HX 100
FT LAUDER-EXEC MOSUNNY   92  74  55 SE9       30.01F HX 101
FT LAUDERDALE  PTSUNNY   88  75  65 SE14      30.01F HX  97
POMPANO BEACH  MOSUNNY   88  77  69 SE10      30.02S HX 100
PEMBROKE PINES PTSUNNY   89  74  60 SE12      30.03F HX  98
OPA LOCKA      MOSUNNY   89  77  67 SE14      30.02F HX 101
MIAMI          PTSUNNY   88  74  63 SE9       30.02S HX  96
WEST KENDALL     N/A    N/A N/A N/A MISG        N/A
HOMESTEAD      PTSUNNY   84  80  86 SW8       30.01F HX  97

STATION/POSITION SKY/WX   TEMP    WIND        PRES    WAVE   SWELL
                          AIR SEA DIR/SP/G            HT/PER HT/PER
                          (F)     (DEG/KT/KT) (MB)    (FT/S) (FT/S)
PORT EVERGLADES            85     140/  7/  9 1016.7F
VIRGINIA KEY                      160/  7/  9 1016.2F
LAKE WORTH                 83 84              1017.5F
FOWEY ROCKS                85 85  190/ 15/ 15 1017.5F
SETTLEMENT POINT           83      80/  4/  4 1017.2F

$$




USA.gov is the U.S. government's official web portal to all federal, state and local government web resources and services.